CAPE
395 512 519 147 34 40 0 0 0 71 93 402 395 499 439 187 7 0 0 0 0 0 0 0 0 0 0 0 2 0 75 93 176 119 97 41 21 10 500 515 713 302 225 243
81 223 189 45 5 4 0 0 0 60 77 320 419 493 489 325 148 1 0 0 0 0 0 0 0 0 0 0 4 0 26 56 123 152 71 24 0 74 325 531 1021 465 343 405
46 35 2 2 0 0 0 0 0 25 420 288 304 283 360 395 303 110 3 0 0 0 0 0 0 0 0 0 5 5 1 57 97 159 88 154 229 288 265 511 956 859 418 429
6 0 0 0 0 0 0 0 0 385 389 476 258 199 162 232 350 215 109 18 0 0 0 0 0 0 0 0 9 4 19 32 54 106 101 123 157 246 272 210 489 837 651 466
0 0 0 0 0 0 0 0 5 316 262 408 431 399 187 153 268 215 196 136 51 7 0 0 0 0 0 0 7 1 84 172 71 92 115 117 82 90 157 203 445 627 504 566
0 0 0 0 0 0 0 19 0 0 120 414 193 367 143 185 351 332 253 186 186 87 33 0 0 0 0 0 0 0 2 201 27 64 112 115 66 88 212 297 338 431 469 158
0 0 0 0 0 0 0 0 2 15 267 316 0 260 360 0 73 334 338 268 199 155 113 65 0 0 0 0 0 0 0 0 0 64 94 74 78 73 143 293 415 406 280 70
0 0 0 0 0 0 0 0 0 0 0 0 0 224 220 5 9 13 24 184 269 176 82 75 21 0 0 0 0 0 0 0 0 0 20 34 24 17 45 202 434 428 192 15
0 0 0 0 0 0 0 0 0 1 0 20 2 1 4 1 39 70 298 308 366 292 168 103 25 1 0 0 0 0 0 0 0 0 0 0 0 64 144 244 412 325 256 37
0 0 0 0 0 0 0 0 0 0 50 46 0 0 37 3 2 67 299 213 280 325 351 321 93 0 0 0 0 0 0 0 0 0 0 0 0 99 276 441 739 656 455 310
0 0 0 0 0 0 0 0 0 0 0 0 0 0 0 0 5 87 199 168 217 417 392 430 382 249 153 72 50 0 0 0 0 0 0 0 4 131 309 324 384 834 1032 991
0 0 0 0 0 0 0 0 0 0 0 0 0 0 0 0 0 88 64 0 9 213 222 261 131 77 70 101 139 207 68 22 0 0 8 11 51 142 294 499 1097 991 1094 1364
0 0 0 1 0 0 0 0 0 0 0 0 0 0 0 0 0 0 0 0 0 21 9 14 10 4 0 9 20 43 93 38 34 42 86 195 247 263 297 391 576 972 1682 1690
0 0 0 6 2 0 0 0 0 0 0 0 0 0 0 0 2 0 0 0 0 43 82 23 73 366 517 111 4 0 0 27 51 85 147 226 369 631 759 836 1004 1351 1545 1670
0 0 0 0 0 0 0 0 0 0 0 0 0 0 0 0 0 1 1 6 52 126 242 555 1019 870 791 688 515 317 178 129 175 288 414 595 749 965 1140 1170 1112 909 1184 1347
0 0 0 0 0 0 0 0 0 0 0 0 0 0 0 0 0 0 14 46 61 714 949 1340 1334 1621 1500 1382 1352 1198 1079 1010 950 870 681 524 494 463 457 570 669 635 546 564
0 0 0 0 0 0 0 0 0 0 0 0 0 0 0 0 0 0 0 23 11 939 1429 1571 1660 1650 1474 1273 971 662 254 136 74 30 3 0 0 0 0 1 0 4 11 0
0 0 0 0 0 0 0 0 0 0 0 0 0 0 0 0 0 0 0 3 22 956 1659 1631 1704 1468 950 353 152 38 3 0 0 0 0 0 0 0 0 0 0 0 0 0
0 0 0 0 0 0 0 0 0 0 0 0 0 0 0 0 0 0 0 0 1 818 1661 1602 1644 938 297 110 5 0 0 0 0 0 0 0 0 0 0 0 0 0 0 0
0 0 0 0 0 0 0 0 0 0 0 0 0 0 4 0 37 3 0 3 126 1351 1590 1586 796 272 39 0 0 0 0 0 0 0 0 0 0 0 0 0 0 0 0 0
0 0 0 0 0 0 0 0 0 0 0 0 0 0 0 25 1 0 6 77 751 1564 1539 757 328 49 0 0 0 0 0 0 0 0 0 0 0 0 0 0 0 0 0 0
0 0 0 0 0 0 0 0 0 0 0 0 0 0 0 6 0 0 85 515 1324 1284 602 233 161 18 0 0 0 0 0 0 0 0 0 0 0 0 0 0 0 0 0 0
0 0 0 0 0 0 0 0 0 0 0 0 0 0 0 150 32 75 346 894 1089 962 470 721 598 1 0 0 0 0 0 0 0 0 0 0 0 0 0 0 0 0 0 0
0 0 0 0 0 0 0 0 0 0 0 0 0 0 0 325 242 522 675 607 687 639 633 588 35 0 0 0 0 0 0 0 0 0 0 0 0 0 0 0 0 0 0 0
0 0 0 0 0 0 0 0 0 0 0 0 0 0 0 487 399 679 666 598 605 730 419 85 0 0 0 0 0 0 0 0 0 0 0 0 0 0 0 0 0 0 0 0
0 0 0 0 0 0 0 0 0 0 0 0 0 0 0 92 514 600 661 677 455 411 152 2 0 0 0 0 0 0 0 0 0 0 0 0 0 0 0 0 0 0 0 0
CIN
-270 -269 -201 -246 -379 -301 -0 -0 -0 -170 -215 -129 -126 -212 -214 -228 -159 -0 -0 -0 -0 -0 -0 -0 -0 -0 -0 -0 -229 -0 -192 -207 -184 -223 -216 -270 -254 -32 -145 -184 -162 -204 -207 -164
-333 -273 -285 -269 -401 -317 -0 -0 -0 -261 -288 -185 -210 -211 -213 -229 -251 -19 -0 -0 -0 -0 -0 -0 -0 -0 -0 -144 -283 -0 -269 -264 -200 -193 -251 -305 -0 -256 -145 -170 -141 -168 -167 -127
-232 -200 -215 -156 -0 -0 -0 -0 -0 -151 -251 -275 -229 -233 -262 -238 -220 -283 -190 -0 -0 -0 -0 -0 -0 -0 -0 -0 -294 -349 -42 -257 -219 -193 -247 -215 -191 -191 -176 -140 -133 -147 -171 -149
-301 -26 -0 -0 -0 -0 -0 -0 -0 -257 -177 -107 -231 -78 -374 -349 -289 -298 -338 -415 -0 -0 -0 -0 -0 -0 -0 -0 -304 -391 -342 -313 -250 -271 -254 -240 -206 -139 -164 -196 -203 -163 -174 -174
-0 -0 -0 -0 -0 -0 -0 -0 -211 -259 -249 -212 -225 -142 -264 -450 -369 -385 -428 -449 -427 -468 -0 -0 -0 -0 -0 -0 -322 -347 -302 -259 -315 -332 -319 -316 -298 -306 -268 -262 -209 -197 -203 -159
-0 -0 -0 -0 -0 -0 -0 -279 -0 -0 -286 -93 -263 -184 -237 -405 -323 -361 -429 -419 -381 -399 -407 -0 -0 -0 -0 -0 -0 -0 -64 -260 -401 -378 -371 -351 -348 -304 -263 -243 -225 -242 -231 -275
-0 -0 -0 -0 -0 -0 -0 -0 -76 -115 -92 -96 -0 -230 -190 -0 -473 -326 -389 -393 -389 -388 -407 -396 -0 -0 -0 -0 -0 -0 -0 -0 -0 -402 -401 -408 -367 -336 -281 -287 -260 -214 -237 -312
-0 -0 -0 -0 -0 -0 -0 -0 -0 -0 -0 -0 -0 -244 -156 -404 -701 -740 -696 -505 -386 -394 -453 -475 -502 -0 -0 -0 -0 -0 -0 -0 -0 -0 -519 -486 -494 -481 -384 -303 -250 -249 -283 -120
-0 -0 -0 -0 -0 -0 -0 -0 -0 -18 -0 -47 -152 -47 -30 -199 -671 -673 -545 -457 -386 -372 -438 -469 -600 -84 -0 -0 -0 -0 -0 -0 -0 -0 -0 -0 -0 -473 -388 -296 -258 -277 -318 -410
-0 -0 -0 -0 -0 -0 -0 -0 -0 -0 -73 -43 -0 -0 -210 -547 -630 -670 -531 -494 -479 -446 -404 -452 -592 -20 -0 -0 -0 -0 -0 -0 -0 -0 -0 -0 -0 -629 -462 -329 -233 -236 -280 -336
-0 -0 -0 -0 -0 -0 -0 -0 -0 -0 -0 -0 -0 -0 -0 -0 -561 -694 -566 -534 -508 -572 -468 -515 -489 -531 -530 -543 -571 -1 -0 -0 -0 -0 -0 -0 -456 -606 -481 -421 -398 -226 -184 -209
-0 -0 -0 -0 -0 -0 -0 -0 -0 -0 -0 -0 -0 -0 -0 -0 -0 -691 -642 -0 -422 -565 -649 -607 -652 -688 -629 -544 -497 -525 -660 -832 -0 -0 -744 -744 -663 -599 -523 -406 -209 -196 -183 -160
-0 -0 -0 -12 -0 -0 -0 -0 -0 -0 -0 -0 -0 -0 -0 -0 -0 -0 -0 -0 -0 -698 -742 -785 -763 -610 -0 -161 -151 -712 -702 -826 -839 -798 -705 -623 -586 -570 -541 -467 -363 -217 -102 -123
-0 -0 -0 -24 -36 -0 -0 -0 -0 -0 -0 -0 -0 -0 -0 -0 -354 -0 -337 -0 -121 -568 -626 -731 -740 -626 -602 -703 -428 -0 -0 -886 -800 -759 -697 -651 -582 -479 -419 -372 -289 -205 -139 -117
-0 -0 -0 -0 -0 -0 -0 -0 -0 -0 -0 -0 -0 -0 -0 -0 -0 -135 -701 -536 -553 -536 -594 -562 -497 -522 -556 -631 -693 -738 -762 -769 -723 -640 -579 -521 -463 -385 -331 -304 -270 -289 -205 -153
-0 -0 -0 -0 -0 -0 -0 -0 -0 -0 -0 -0 -0 -0 -0 -0 -0 -0 -691 -647 -589 -440 -456 -455 -465 -529 -542 -538 -522 -493 -486 -470 -456 -482 -485 -487 -519 -519 -472 -403 -341 -317 -317 -288
-0 -0 -0 -0 -0 -0 -0 -0 -0 -0 -0 -0 -0 -0 -0 -0 -0 -0 -0 -620 -589 -433 -422 -451 -507 -471 -488 -515 -555 -618 -723 -811 -845 -935 -615 -0 -0 -0 -0 -525 -0 -518 -463 -0
-0 -0 -0 -0 -0 -0 -0 -0 -0 -0 -0 -0 -0 -0 -0 -0 -0 -0 -0 -88 -612 -485 -430 -449 -429 -457 -553 -734 -815 -958 -457 -0 -0 -0 -0 -0 -0 -0 -0 -0 -0 -0 -0 -0
-0 -0 -0 -0 -0 -0 -0 -0 -0 -0 -0 -0 -0 -0 -0 -0 -0 -0 -0 -0 -75 -499 -400 -424 -393 -553 -742 -839 -405 -0 -0 -0 -0 -0 -0 -0 -0 -0 -0 -0 -0 -0 -0 -0
-0 -0 -0 -0 -0 -0 -0 -0 -0 -0 -0 -0 -0 -0 -627 -0 -189 -33 -0 -891 -719 -455 -430 -400 -544 -709 -888 -0 -0 -0 -0 -0 -0 -0 -0 -0 -0 -0 -0 -0 -0 -0 -0 -0
-0 -0 -0 -0 -0 -0 -0 -0 -0 -0 -0 -0 -0 -0 -0 -289 -46 -0 -345 -835 -642 -514 -452 -585 -663 -869 -0 -0 -0 -0 -0 -0 -0 -0 -0 -0 -0 -0 -0 -0 -0 -0 -0 -0
-0 -0 -0 -0 -0 -0 -0 -0 -0 -0 -0 -0 -0 -0 -0 -119 -0 -0 -824 -828 -655 -617 -701 -801 -752 -858 -0 -0 -0 -0 -0 -0 -0 -0 -0 -0 -0 -0 -0 -0 -0 -0 -0 -0
-0 -0 -0 -0 -0 -0 -0 -0 -0 -0 -0 -0 -0 -0 -0 -737 -790 -915 -868 -799 -737 -716 -795 -608 -569 -58 -0 -0 -0 -0 -0 -0 -0 -0 -0 -0 -0 -0 -0 -0 -0 -0 -0 -0
-0 -0 -0 -0 -0 -0 -0 -0 -0 -0 -0 -0 -0 -0 -0 -689 -840 -841 -876 -905 -840 -776 -694 -645 -802 -0 -0 -0 -0 -0 -0 -0 -0 -0 -0 -0 -0 -0 -0 -0 -0 -0 -0 -0
-0 -0 -0 -0 -0 -0 -0 -0 -0 -0 -0 -0 -0 -0 -0 -758 -808 -835 -892 -885 -850 -729 -765 -963 -0 -0 -0 -0 -0 -0 -0 -0 -0 -0 -0 -0 -0 -0 -0 -0 -0 -0 -0 -0
-0 -0 -0 -0 -0 -0 -0 -0 -0 -0 -0 -0 -0 -0 -0 -440 -763 -795 -854 -847 -911 -878 -959 -192 -0 -0 -0 -0 -0 -0 -0 -0 -0 -0 -0 -0 -0 -0 -0 -0 -0 -0 -0 -0
Wind_Speed
2 3 7 9 9 2 4 2 3 1 2 5 4 7 11 8 6 7 7 8 10 9 6 7 9 10 10 8 9 8 8 7 5 2 2 1 3 2 2 3 4 5 4 3
3 10 13 6 4 6 6 5 7 3 2 6 3 3 7 11 9 10 12 11 13 8 8 8 7 8 11 12 11 8 9 7 7 3 2 2 2 3 1 1 3 4 5 4
7 6 6 4 4 5 5 8 6 5 6 7 6 0 6 8 7 9 10 10 10 13 14 14 13 13 11 11 10 9 10 10 7 6 2 2 1 1 1 1 2 3 6 7
6 5 3 1 5 6 3 12 8 9 6 4 2 5 6 8 12 12 13 13 13 13 12 13 16 15 14 12 10 10 10 11 7 8 5 6 4 4 3 2 3 2 6 7
9 3 3 5 6 7 2 7 6 4 5 5 1 3 5 7 9 14 16 16 16 15 14 15 14 14 11 12 11 12 11 9 8 9 7 5 5 3 1 2 2 2 3 5
7 5 5 8 3 7 8 9 9 5 3 3 3 5 6 7 10 8 13 14 15 15 14 12 11 9 9 7 8 9 10 9 8 10 10 9 8 6 3 3 3 3 1 3
7 6 4 4 1 5 8 8 5 5 4 7 0 4 11 3 6 7 12 12 14 15 14 13 13 12 10 11 11 10 9 10 8 10 8 8 9 6 6 6 4 3 2 3
1 10 1 4 6 8 7 9 8 5 4 3 4 5 8 4 6 4 3 6 12 14 14 17 16 16 15 15 13 13 11 12 9 10 10 6 7 5 4 5 3 4 4 5
3 8 7 5 4 6 5 4 5 9 3 3 3 8 10 5 4 4 4 6 14 14 15 16 15 16 15 14 15 14 11 12 10 12 7 7 6 5 4 5 4 5 5 5
5 3 3 6 3 3 3 6 4 4 5 3 4 6 8 3 6 5 6 7 7 7 10 12 14 14 13 13 14 13 12 14 12 10 9 8 8 8 7 4 6 7 8 6
6 3 8 5 1 3 2 2 7 7 5 6 1 9 7 9 10 11 10 8 9 8 5 5 7 9 9 9 11 13 12 12 10 10 9 9 7 7 5 5 6 10 8 8
7 6 5 10 2 1 3 4 6 7 4 2 3 8 2 4 5 5 5 6 3 2 6 7 6 7 7 8 8 11 12 12 12 11 8 10 8 6 5 6 8 6 10 8
9 4 3 10 7 2 3 3 5 5 4 5 6 8 2 4 5 3 4 5 3 5 6 6 5 6 7 8 11 9 9 10 8 8 9 6 5 6 7 7 9 8 8 10
9 3 8 8 10 5 2 3 0 6 5 6 7 6 4 7 7 7 6 7 2 4 7 5 5 5 6 6 5 8 8 9 7 6 6 6 6 6 7 6 6 6 5 5
5 3 4 6 4 3 2 2 6 5 5 7 6 7 4 12 11 9 7 8 6 3 8 8 7 8 8 7 8 8 7 7 7 6 5 3 4 4 3 4 3 3 2 1
1 1 2 2 3 4 2 2 6 2 3 1 3 7 5 3 8 8 9 8 6 5 7 8 8 9 9 9 11 10 9 8 9 10 8 5 8 7 6 5 5 6 5 5
1 7 4 4 5 4 5 6 6 5 5 8 6 10 7 5 9 14 11 10 9 7 7 6 10 8 9 10 9 10 9 9 10 11 7 7 7 6 5 5 5 5 5 4
2 4 3 4 2 2 10 3 6 4 4 7 5 1 5 5 4 6 4 9 10 8 9 9 8 9 8 10 9 9 8 9 9 9 8 5 7 6 5 5 5 4 3 4
3 5 4 4 4 5 4 6 6 4 5 9 5 3 3 4 4 2 8 8 10 7 7 9 8 9 10 11 7 9 8 8 8 8 6 5 6 6 5 5 4 3 4 5
3 4 4 4 4 7 4 7 7 6 5 9 8 5 11 6 4 7 13 10 10 13 13 12 10 9 10 6 7 10 7 8 8 6 5 5 5 6 6 4 4 3 5 5
0 4 5 4 3 6 5 12 7 7 8 16 5 5 6 7 8 4 13 9 12 15 16 15 13 11 9 7 6 8 7 7 6 6 5 6 4 6 5 4 3 4 6 6
6 6 5 3 4 6 7 5 3 6 7 9 9 6 11 10 6 8 14 15 18 20 19 16 14 11 10 9 10 7 6 5 6 6 6 6 5 4 5 7 4 6 6 7
0 3 3 5 4 2 2 7 5 3 4 6 10 11 10 8 7 11 11 16 16 20 17 15 14 11 8 8 9 9 6 5 6 6 6 5 5 5 5 6 5 5 5 4
4 2 1 2 4 4 4 2 2 4 5 7 11 11 9 11 9 7 14 15 16 17 18 14 13 13 10 9 8 6 7 6 7 6 6 5 6 5 5 4 3 4 4 3
4 6 3 4 4 9 4 8 8 9 8 10 13 13 10 6 11 13 13 17 17 17 14 14 14 13 12 10 9 8 8 9 8 7 5 5 4 5 5 4 3 3 2 1
4 4 2 5 5 5 7 8 9 8 8 10 9 14 14 6 7 9 12 14 17 16 14 12 11 12 12 11 10 8 8 9 9 7 4 3 4 4 3 5 5 11 8 7
Wind_Direction
232 46 233 231 205 271 318 303 232 240 202 111 170 140 166 167 150 160 175 180 185 176 184 180 178 170 172 173 183 173 169 179 158 146 176 204 230 240 230 221 203 181 190 220
83 239 234 239 200 216 213 250 269 312 156 93 122 140 174 178 192 188 183 190 196 171 171 194 191 184 182 184 192 165 182 180 190 160 183 161 185 223 242 208 210 167 186 192
190 239 148 195 230 194 236 202 202 181 119 61 125 109 172 197 185 182 202 204 198 190 190 189 199 193 196 195 182 178 188 194 194 172 151 125 241 39 280 239 212 200 175 196
231 276 251 127 253 145 277 194 173 160 124 176 173 260 220 187 199 193 199 197 203 201 202 197 196 202 201 201 187 170 189 197 192 169 177 184 196 201 229 201 186 190 197 202
251 291 304 293 200 192 278 134 138 87 85 95 241 56 266 145 210 210 202 201 203 202 201 203 198 200 206 198 183 181 187 194 183 183 186 188 216 216 216 255 225 200 201 202
250 251 238 221 156 186 132 73 54 60 78 350 241 132 270 188 207 199 208 203 201 198 202 205 206 194 199 182 185 183 178 189 183 183 192 194 207 222 223 243 253 261 205 203
319 231 235 180 30 23 72 65 19 17 10 228 177 145 251 216 229 186 198 198 199 197 190 193 182 188 191 183 184 191 188 201 197 199 200 200 212 218 223 233 225 237 258 233
338 320 239 147 193 165 182 156 157 175 198 254 130 233 257 231 127 133 208 218 182 193 189 191 190 191 191 189 184 185 190 208 202 206 208 203 208 208 218 227 233 245 238 247
162 275 301 210 209 138 180 166 171 99 52 79 248 291 294 164 148 138 162 181 181 192 189 190 187 191 190 191 195 192 189 204 205 215 213 213 210 206 204 231 224 244 248 250
223 291 246 294 86 32 144 149 74 18 134 225 295 277 240 226 201 181 182 190 185 184 199 193 192 187 190 189 191 189 189 194 194 195 201 211 202 192 201 198 233 230 250 247
143 139 267 3 343 222 50 44 49 111 111 156 195 265 207 216 195 195 201 195 175 163 177 170 176 181 183 185 185 190 193 192 190 195 200 204 202 211 185 207 239 249 243 235
193 162 243 235 261 35 283 124 139 120 211 89 135 274 330 243 182 170 195 92 75 90 128 150 154 141 157 181 192 192 194 192 193 196 186 202 198 195 194 228 237 228 247 239
186 215 19 346 0 351 215 130 113 112 89 185 131 265 46 102 104 74 104 99 121 133 147 141 143 182 201 223 220 208 182 187 178 176 187 194 207 177 209 222 243 252 242 255
93 131 152 182 212 165 178 151 225 117 114 169 224 279 219 171 178 154 159 144 159 179 161 171 169 199 228 249 183 151 149 159 167 165 171 194 216 218 224 235 239 232 231 259
103 129 153 233 232 292 133 189 175 191 164 144 243 206 262 191 190 177 169 132 159 229 151 154 163 167 166 145 120 109 118 139 152 157 170 188 207 223 243 233 240 227 218 70
99 181 218 312 10 182 286 278 211 232 124 339 106 253 206 166 110 148 166 154 154 148 152 150 167 113 88 96 97 102 105 106 121 107 92 96 85 79 60 58 73 75 70 60
46 134 120 263 336 68 348 253 193 183 179 147 164 226 157 177 186 174 168 161 158 167 156 153 94 97 103 97 107 103 104 107 93 95 95 87 86 80 75 73 63 61 58 58
111 89 64 186 16 128 239 278 222 208 187 196 272 170 194 190 112 124 157 156 160 160 141 112 110 106 98 97 92 106 103 94 103 101 97 92 94 87 75 68 67 60 42 45
175 137 95 144 176 272 290 31 30 2 262 187 217 130 112 100 79 168 183 166 159 136 122 122 124 121 106 105 120 116 107 111 108 95 96 103 100 100 85 79 76 59 66 62
48 62 118 127 142 201 259 321 323 297 297 46 328 221 154 141 128 243 175 159 142 129 135 125 108 106 106 116 130 118 117 101 95 106 117 104 102 105 107 122 89 69 70 75
11 329 152 136 210 281 311 309 301 108 247 325 325 272 248 181 193 168 136 132 134 140 130 124 128 130 130 120 119 110 102 110 131 131 127 112 129 113 120 107 90 89 83 81
182 164 196 90 149 258 337 26 103 263 303 305 311 297 227 307 130 151 153 134 140 135 137 137 137 146 147 132 118 111 125 156 139 133 128 124 118 102 106 99 88 84 87 80
316 205 209 166 197 211 6 137 217 247 261 295 293 301 274 212 243 155 147 141 147 147 148 149 148 137 144 137 121 137 167 166 140 135 124 116 101 105 116 110 109 91 82 84
309 19 83 62 217 358 227 245 313 281 266 300 324 321 241 208 180 158 145 143 148 152 156 149 142 152 147 133 132 138 171 149 125 115 108 101 99 100 98 89 92 97 93 90
241 343 331 284 333 340 182 19 333 318 319 335 336 354 329 189 188 165 154 154 156 158 158 151 152 152 148 130 138 156 154 126 117 112 111 105 97 95 105 83 73 92 107 132
203 200 121 243 264 206 260 302 306 317 324 323 331 341 356 300 204 171 169 157 155 157 153 146 140 140 140 142 148 150 136 135 127 121 121 116 108 98 113 105 81 52 54 74